This is the latest recevied weather packets stored in our database for station/object HB9FSE-WX. If no packets are shown the sender has not sent any weather packets the latest 10 day(s).
| Time | Temp. | Humidity | Pressure | Rain* | Wind** | Luminosity | Snow |
|---|---|---|---|---|---|---|---|
| 1778104592 | 22.78° C | 36% | 1012 hPa | - | - | - | - |
| 1778103692 | 22.78° C | 36% | 1011.9 hPa | - | - | - | - |
| 1778102792 | 22.78° C | 36% | 1011.9 hPa | - | - | - | - |
| 1778101892 | 23.33° C | 38% | 1012 hPa | - | - | - | - |
| 1778100992 | 23.33° C | 38% | 1011.8 hPa | - | - | - | - |
| 1778100092 | 23.33° C | 38% | 1011.8 hPa | - | - | - | - |
| 1778099192 | 23.33° C | 38% | 1011.8 hPa | - | - | - | - |
| 1778098291 | 23.89° C | 38% | 1011.9 hPa | - | - | - | - |
| 1778097391 | 23.89° C | 38% | 1011.8 hPa | - | - | - | - |
| 1778096491 | 23.89° C | 38% | 1011.6 hPa | - | - | - | - |
| 1778095591 | 23.89° C | 38% | 1011.4 hPa | - | - | - | - |
| 1778094690 | 23.89° C | 38% | 1011.3 hPa | - | - | - | - |
| 1778093790 | 23.89° C | 38% | 1011.1 hPa | - | - | - | - |
| 1778092890 | 23.89° C | 38% | 1011 hPa | - | - | - | - |
| 1778091092 | 23.33° C | 39% | 1010.9 hPa | - | - | - | - |
| 1778090192 | 23.89° C | 39% | 1010.6 hPa | - | - | - | - |
| 1778089292 | 24.44° C | 38% | 1010.3 hPa | - | - | - | - |
| 1778088392 | 24.44° C | 38% | 1010.1 hPa | - | - | - | - |
| 1778087492 | 23.89° C | 38% | 1010 hPa | - | - | - | - |
| 1778086592 | 23.89° C | 38% | 1009.9 hPa | - | - | - | - |
| 1778085692 | 23.89° C | 38% | 1010 hPa | - | - | - | - |
| 1778084792 | 23.89° C | 37% | 1009.9 hPa | - | - | - | - |
| 1778083892 | 23.89° C | 37% | 1009.9 hPa | - | - | - | - |
| 1778082992 | 23.89° C | 38% | 1009.9 hPa | - | - | - | - |
| 1778082092 | 23.33° C | 37% | 1010.1 hPa | - | - | - | - |
* Rain since midnight (hover to see other rain measurements)
** Current wind speed in m/s (hover to see current wind gust speed)